When you browse on this site, cookies collect data to enhance your experience and personalize the content and advertising you see.
Visit our Privacy Policy to learn more. By continuing to use the site, you agree to this use of cookies and data.
  • In Hungary
  • List of Countries
  • For 7 days
  • Water Temperature
  • Satellite Maps
  • Weather Map
  • News
  • Weather Widgets
  • user-avatar
    Login

    Hourly Weather Pontevedra

    Today, 21 November, Wednesday

    Time Temperature Precipitation Wind Pressure Humidity
    00:00 +10°C° 0 mm 1 mps 744 mmHg 96%
    01:00 +10°C° 0 mm 1 mps 744 mmHg 97%
    02:00 +9°C° 0 mm 2 mps 744 mmHg 97%
    03:00 +9°C° 0.3 mm 2 mps 744 mmHg 97%
    04:00 +9°C° 0.3 mm 2 mps 745 mmHg 97%
    05:00 +9°C° 0.3 mm 3 mps 745 mmHg 97%
    06:00 +9°C° 0.9 mm 3 mps 745 mmHg 95%
    07:00 +8°C° 0.9 mm 4 mps 745 mmHg 93%
    08:00 +10°C° 0.9 mm 4 mps 745 mmHg 92%
    09:00 +9°C° 0.7 mm 5 mps 746 mmHg 89%
    10:00 +10°C° 0.7 mm 5 mps 746 mmHg 87%
    11:00 +12°C° 0.7 mm 5 mps 746 mmHg 85%
    12:00 +10°C° 0.6 mm 5 mps 746 mmHg 85%
    13:00 +10°C° 0.6 mm 5 mps 746 mmHg 86%
    14:00 +10°C° 0.6 mm 5 mps 746 mmHg 86%
    15:00 +9°C° 0.4 mm 5 mps 747 mmHg 89%
    16:00 +8°C° 0.4 mm 4 mps 747 mmHg 92%
    17:00 +7°C° 0.4 mm 4 mps 747 mmHg 95%
    18:00 +7°C° 0.4 mm 4 mps 748 mmHg 95%
    19:00 +7°C° 0.4 mm 4 mps 748 mmHg 95%
    20:00 +7°C° 0.4 mm 4 mps 748 mmHg 95%
    21:00 +7°C° 0.5 mm 4 mps 749 mmHg 95%
    22:00 +7°C° 0.5 mm 4 mps 749 mmHg 95%
    23:00 +7°C° 0.5 mm 4 mps 749 mmHg 95%

    Tomorrow, 22 November, Thursday

    Time Temperature Precipitation Wind Pressure Humidity
    00:00 +7°C° 0.4 mm 4 mps 749 mmHg 95%
    01:00 +7°C° 0.4 mm 4 mps 749 mmHg 95%
    02:00 +7°C° 0.4 mm 4 mps 749 mmHg 96%
    03:00 +7°C° 0.3 mm 4 mps 749 mmHg 96%
    04:00 +7°C° 0.3 mm 4 mps 749 mmHg 96%
    05:00 +6°C° 0.3 mm 4 mps 749 mmHg 96%
    06:00 +7°C° 0.2 mm 5 mps 749 mmHg 94%
    07:00 +7°C° 0.2 mm 5 mps 749 mmHg 93%
    08:00 +8°C° 0.2 mm 5 mps 750 mmHg 92%
    09:00 +9°C° 0.2 mm 5 mps 750 mmHg 89%
    10:00 +10°C° 0.2 mm 6 mps 750 mmHg 85%
    11:00 +10°C° 0.2 mm 6 mps 750 mmHg 82%
    12:00 +11°C° 0.4 mm 6 mps 750 mmHg 81%
    13:00 +11°C° 0.4 mm 6 mps 750 mmHg 81%
    14:00 +12°C° 0.4 mm 5 mps 749 mmHg 81%
    15:00 +10°C° 0.8 mm 5 mps 750 mmHg 85%
    16:00 +10°C° 0.8 mm 4 mps 750 mmHg 89%
    17:00 +9°C° 0.8 mm 3 mps 750 mmHg 93%
    18:00 +9°C° 0.6 mm 3 mps 751 mmHg 94%
    19:00 +9°C° 0.6 mm 2 mps 751 mmHg 95%
    20:00 +10°C° 0.6 mm 1 mps 751 mmHg 96%
    21:00 +9°C° 0.1 mm 1 mps 751 mmHg 96%
    22:00 +9°C° 0.1 mm 1 mps 752 mmHg 96%
    23:00 +9°C° 0.1 mm 1 mps 752 mmHg 97%

    Day after tomorrow, 23 November, Friday

    Time Temperature Precipitation Wind Pressure Humidity
    00:00 +8°C° 0.1 mm 2 mps 752 mmHg 97%
    01:00 +8°C° 0.1 mm 2 mps 751 mmHg 96%
    02:00 +8°C° 0.1 mm 3 mps 751 mmHg 96%
    03:00 +8°C° 0.2 mm 3 mps 751 mmHg 96%
    04:00 +7°C° 0.2 mm 4 mps 751 mmHg 96%
    05:00 +7°C° 0.2 mm 4 mps 751 mmHg 96%
    06:00 +7°C° 0.7 mm 4 mps 751 mmHg 95%
    07:00 +7°C° 0.7 mm 4 mps 751 mmHg 94%
    08:00 +8°C° 0.7 mm 5 mps 752 mmHg 94%
    09:00 +8°C° 0.9 mm 5 mps 752 mmHg 93%
    10:00 +9°C° 0.9 mm 5 mps 752 mmHg 92%
    11:00 +9°C° 0.9 mm 5 mps 752 mmHg 91%
    12:00 +9°C° 0.7 mm 5 mps 752 mmHg 91%
    13:00 +9°C° 0.7 mm 5 mps 751 mmHg 90%
    14:00 +10°C° 0.7 mm 5 mps 751 mmHg 90%
    15:00 +9°C° 0.4 mm 5 mps 752 mmHg 92%
    16:00 +10°C° 0.4 mm 4 mps 752 mmHg 93%
    17:00 +9°C° 0.4 mm 3 mps 752 mmHg 95%
    18:00 +9°C° 0.4 mm 3 mps 752 mmHg 96%
    19:00 +9°C° 0.4 mm 3 mps 753 mmHg 96%
    20:00 +9°C° 0.4 mm 3 mps 753 mmHg 97%
    21:00 +9°C° 0.4 mm 3 mps 753 mmHg 97%
    22:00 +9°C° 0.4 mm 3 mps 753 mmHg 97%
    23:00 +9°C° 0.4 mm 3 mps 753 mmHg 97%

    24 November, Saturday

    Time Temperature Precipitation Wind Pressure Humidity
    00:00 +9°C° 0.2 mm 3 mps 753 mmHg 97%
    01:00 +9°C° 0.2 mm 3 mps 753 mmHg 97%
    02:00 +9°C° 0.2 mm 3 mps 753 mmHg 97%
    03:00 +9°C° 0.1 mm 3 mps 753 mmHg 97%
    04:00 +9°C° 0.1 mm 3 mps 752 mmHg 97%
    05:00 +9°C° 0.1 mm 3 mps 752 mmHg 98%
    06:00 +8°C° 0 mm 4 mps 752 mmHg 97%
    07:00 +10°C° 0 mm 4 mps 753 mmHg 96%
    08:00 +9°C° 0 mm 5 mps 753 mmHg 96%
    09:00 +10°C° 0.1 mm 5 mps 752 mmHg 93%
    10:00 +10°C° 0.1 mm 6 mps 752 mmHg 91%
    11:00 +11°C° 0.1 mm 6 mps 752 mmHg 89%
    12:00 +11°C° 0.2 mm 6 mps 751 mmHg 89%
    13:00 +11°C° 0.2 mm 7 mps 750 mmHg 90%
    14:00 +11°C° 0.2 mm 7 mps 750 mmHg 90%
    15:00 +11°C° 1 mm 7 mps 749 mmHg 91%
    16:00 +10°C° 1 mm 7 mps 749 mmHg 91%
    17:00 +10°C° 1 mm 7 mps 749 mmHg 91%
    18:00 +10°C° 1.4 mm 7 mps 749 mmHg 91%
    19:00 +10°C° 1.4 mm 7 mps 749 mmHg 91%
    20:00 +10°C° 1.4 mm 7 mps 749 mmHg 91%
    21:00 +11°C° 0.6 mm 6 mps 749 mmHg 92%
    22:00 +11°C° 0.6 mm 6 mps 748 mmHg 93%
    23:00 +12°C° 0.6 mm 5 mps 748 mmHg 94%

    25 November, Sunday

    Time Temperature Precipitation Wind Pressure Humidity
    00:00 +12°C° 0.2 mm 5 mps 748 mmHg 95%
    01:00 +12°C° 0.2 mm 5 mps 748 mmHg 95%
    02:00 +13°C° 0.2 mm 5 mps 748 mmHg 96%
    03:00 +13°C° 0.4 mm 5 mps 748 mmHg 96%
    04:00 +13°C° 0.4 mm 4 mps 748 mmHg 96%
    05:00 +13°C° 0.4 mm 4 mps 748 mmHg 97%
    06:00 +13°C° 0.4 mm 4 mps 748 mmHg 97%
    07:00 +13°C° 0.4 mm 4 mps 749 mmHg 97%
    08:00 +13°C° 0.4 mm 4 mps 749 mmHg 97%
    09:00 +14°C° 0.3 mm 4 mps 749 mmHg 96%
    10:00 +14°C° 0.3 mm 4 mps 749 mmHg 95%
    11:00 +14°C° 0.3 mm 5 mps 749 mmHg 94%
    12:00 +14°C° 0.8 mm 5 mps 749 mmHg 95%
    13:00 +13°C° 0.8 mm 5 mps 748 mmHg 95%
    14:00 +13°C° 0.8 mm 5 mps 748 mmHg 96%
    15:00 +13°C° 1.4 mm 5 mps 747 mmHg 96%
    16:00 +13°C° 1.4 mm 6 mps 747 mmHg 96%
    17:00 +13°C° 1.4 mm 6 mps 747 mmHg 96%
    18:00 +11°C° 1.7 mm 6 mps 748 mmHg 94%
    19:00 +11°C° 1.7 mm 7 mps 748 mmHg 93%
    20:00 +11°C° 1.7 mm 7 mps 749 mmHg 91%
    21:00 +10°C° 0.1 mm 7 mps 750 mmHg 90%
    22:00 +9°C° 0.1 mm 6 mps 752 mmHg 89%
    23:00 +8°C° 0.1 mm 6 mps 753 mmHg 88%

    26 November, Monday

    Time Temperature Precipitation Wind Pressure Humidity
    00:00 +8°C° 0 mm 6 mps 753 mmHg 88%
    01:00 +7°C° 0 mm 6 mps 754 mmHg 88%
    02:00 +7°C° 0 mm 5 mps 754 mmHg 88%
    03:00 +7°C° 0 mm 5 mps 755 mmHg 88%
    04:00 +7°C° 0 mm 5 mps 755 mmHg 89%
    05:00 +7°C° 0 mm 5 mps 755 mmHg 90%
    06:00 +8°C° 0 mm 4 mps 755 mmHg 89%
    07:00 +8°C° 0 mm 4 mps 756 mmHg 89%
    08:00 +9°C° 0 mm 3 mps 756 mmHg 89%
    09:00 +10°C° 0.1 mm 4 mps 756 mmHg 85%
    10:00 +11°C° 0.1 mm 4 mps 757 mmHg 81%
    11:00 +12°C° 0.1 mm 4 mps 757 mmHg 78%
    12:00 +12°C° 0.1 mm 5 mps 756 mmHg 79%
    13:00 +12°C° 0.1 mm 5 mps 756 mmHg 80%
    14:00 +12°C° 0.1 mm 5 mps 756 mmHg 81%
    15:00 +10°C° 0.2 mm 6 mps 756 mmHg 84%
    16:00 +10°C° 0.2 mm 6 mps 755 mmHg 87%
    17:00 +10°C° 0.2 mm 6 mps 755 mmHg 89%
    18:00 +10°C° 1.4 mm 7 mps 755 mmHg 90%
    19:00 +10°C° 1.4 mm 7 mps 755 mmHg 92%
    20:00 +10°C° 1.4 mm 8 mps 755 mmHg 93%
    21:00 +10°C° 5.1 mm 8 mps 754 mmHg 94%
    22:00 +10°C° 5.1 mm 8 mps 754 mmHg 95%
    23:00 +11°C° 5.1 mm 9 mps 753 mmHg 96%
    Show more